Theta_e
330 333 335 338 339 338 339 338 336 329 328 336 338 345 347 348 349 350 351 350 347 345 343 343 345 347 348 350 350 350 351 351 352 353 354 355 357 359
327 327 328 333 336 337 337 337 337 332 331 338 340 342 346 348 348 349 350 349 346 344 343 342 342 343 345 346 347 347 347 348 348 348 349 350 352 354
324 325 326 329 329 331 334 334 333 335 331 334 338 341 341 343 345 348 350 349 348 343 343 342 341 341 343 343 344 345 346 346 345 347 347 348 349 351
324 324 324 328 326 327 328 329 330 332 332 329 331 334 338 340 341 342 346 349 347 345 341 340 339 339 339 338 338 339 339 341 341 342 343 346 347 348
324 323 323 324 322 324 326 325 328 331 331 332 330 332 335 338 338 340 341 343 348 346 340 338 338 337 336 334 333 332 332 334 334 335 337 339 342 345
322 321 323 321 319 319 320 320 323 326 328 327 327 327 329 332 334 333 332 335 339 346 346 343 342 340 337 333 333 332 328 326 327 328 329 331 335 339
313 317 319 324 323 320 316 314 316 317 319 323 324 324 324 325 326 328 328 331 333 336 337 341 342 340 340 336 339 337 332 328 324 324 325 325 327 330
308 310 312 319 317 318 318 318 315 311 312 315 319 320 324 327 325 325 326 327 326 335 334 335 341 341 345 346 342 336 332 329 327 325 323 322 323 326
304 305 308 311 311 312 314 314 313 316 315 311 315 317 317 323 321 318 322 325 327 333 333 333 337 338 345 347 337 334 331 329 327 325 323 322 321 322
303 303 304 305 308 311 311 307 309 309 311 313 310 314 316 320 320 320 319 323 329 334 334 330 334 335 338 343 337 335 330 327 325 323 323 320 318 317
302 302 306 305 309 311 307 307 306 308 315 322 321 320 320 322 323 320 317 317 319 325 330 329 329 329 331 334 340 334 329 324 322 322 321 320 316 315
300 301 308 307 308 308 303 302 301 303 308 311 317 316 318 317 323 319 321 320 322 323 327 330 325 326 324 327 331 336 336 321 318 318 320 319 315 322
299 300 302 307 306 306 306 302 303 305 306 307 309 309 312 315 320 322 323 326 324 324 330 329 327 324 324 324 327 332 333 332 332 325 316 313 312 320
298 300 301 306 305 305 304 306 305 304 301 301 301 303 306 307 312 315 321 323 327 328 332 332 328 328 324 322 323 327 333 337 333 334 335 321 311 313
301 305 307 305 304 302 305 305 303 300 301 299 298 299 302 304 307 311 317 318 321 325 332 333 330 329 326 326 323 324 325 327 333 333 333 333 331 323
302 298 303 304 304 303 300 299 298 299 300 298 299 300 301 301 302 308 310 315 318 318 325 328 327 328 324 326 326 326 325 325 328 334 334 334 333 330
300 296 295 294 295 295 295 296 297 297 297 297 298 299 299 300 300 302 305 307 312 315 315 318 320 323 325 326 321 326 325 325 329 328 332 332 333 331
296 294 293 294 294 294 294 295 296 298 298 299 299 299 299 299 299 301 301 304 306 309 311 313 315 317 319 322 329 324 321 323 325 326 327 327 328 334
294 294 294 294 295 295 294 294 294 297 299 299 299 299 299 299 299 299 299 300 301 304 307 310 313 313 310 310 319 320 322 321 322 322 324 325 325 327
296 297 296 296 295 295 295 294 295 296 299 299 299 299 299 299 298 298 298 298 299 300 302 305 309 310 311 311 312 316 314 321 320 320 320 322 325 322
300 297 297 297 296 296 296 296 296 296 299 300 299 299 299 299 298 298 298 298 298 298 298 301 305 312 311 312 311 311 317 315 318 323 321 319 319 320
300 299 300 298 298 297 296 296 296 297 299 299 299 300 300 299 298 298 298 297 297 297 298 300 301 304 304 303 305 308 312 320 321 316 315 321 319 317
300 301 301 299 299 297 296 296 297 298 299 299 299 300 300 299 299 298 298 298 297 297 297 297 299 302 303 304 307 306 309 315 319 321 323 314 316 317
Wind_Speed
5 5 3 3 3 3 2 1 1 2 2 2 2 4 3 3 6 5 7 10 10 10 10 13 12 18 16 19 15 19 24 27 26 25 25 25 24 24
4 6 6 5 4 3 2 2 2 2 3 2 4 4 4 4 9 9 10 11 13 13 14 16 17 18 17 17 17 14 16 21 25 24 22 23 24 23
6 6 7 6 5 4 3 2 2 2 4 3 2 3 3 7 7 9 8 9 9 16 14 14 18 19 19 15 16 17 20 24 23 23 24 23 24 23
7 7 7 6 7 6 4 5 3 3 3 6 3 2 4 4 5 5 6 7 7 12 15 16 13 15 15 12 14 16 18 19 19 20 20 23 24 24
6 6 6 7 9 8 7 7 5 4 3 3 4 2 3 2 3 4 5 5 6 14 14 17 19 18 16 15 15 16 18 19 19 19 21 22 22 24
8 8 6 7 7 8 7 8 8 8 4 3 3 3 3 3 2 3 4 3 5 6 11 14 14 17 19 15 17 17 18 18 18 19 18 20 22 25
8 9 9 11 15 14 7 9 9 7 6 6 4 2 3 3 3 3 4 5 5 5 5 6 6 7 9 14 14 18 19 17 17 19 20 19 20 21
10 10 9 11 14 19 19 17 10 5 5 3 3 5 7 3 2 4 6 5 6 3 1 4 3 6 7 6 11 13 16 16 17 17 17 18 19 20
6 7 8 9 13 12 17 17 14 15 10 6 7 6 6 6 3 4 4 6 8 8 3 8 3 7 5 5 12 14 16 16 16 15 15 15 15 17
5 6 5 7 10 13 9 9 10 9 8 6 6 10 9 8 7 7 8 8 8 9 5 8 4 7 4 5 12 14 16 16 15 14 14 13 14 15
4 5 5 6 19 19 8 8 10 10 14 15 14 17 19 19 15 6 6 4 6 5 4 3 3 4 3 4 6 14 15 15 15 15 15 14 14 14
5 5 11 13 17 17 8 8 9 11 12 13 10 11 10 10 14 5 6 7 7 6 4 4 2 2 5 2 2 3 4 10 13 13 13 13 11 5
3 4 3 15 14 14 15 8 12 13 12 10 10 8 9 9 7 7 7 7 9 8 6 3 4 3 3 4 3 2 3 2 5 6 11 11 13 12
4 4 5 15 14 13 10 17 19 14 8 9 9 9 9 10 11 11 11 10 8 11 13 8 5 6 4 2 3 2 2 4 4 4 5 6 10 14
4 9 14 15 14 11 18 18 14 6 8 10 10 10 10 11 14 12 12 11 11 10 6 6 7 6 5 5 4 4 2 2 4 4 4 6 7 5
6 5 9 11 11 10 9 8 5 5 6 6 8 9 10 10 10 9 11 11 9 5 8 6 5 4 4 6 5 6 4 3 2 4 4 4 5 7
5 3 3 3 4 4 5 5 5 5 5 5 7 8 9 10 10 10 9 10 8 8 7 7 8 8 7 7 4 6 5 4 5 4 4 5 6 7
1 3 3 4 5 5 5 5 5 7 5 6 7 8 8 9 10 10 9 9 9 9 9 8 7 9 6 5 11 5 3 3 4 4 4 4 4 5
4 6 6 5 6 6 5 5 5 6 7 5 7 8 8 9 12 10 9 9 9 9 10 8 6 5 6 6 5 3 2 2 2 2 4 4 4 4
5 8 9 7 7 6 6 5 6 6 6 5 6 7 7 8 9 9 9 9 9 10 10 9 6 5 6 4 5 9 8 6 4 4 3 2 4 4
8 7 7 8 8 7 7 7 7 7 7 7 7 7 7 7 9 9 9 14 14 9 10 10 7 12 6 7 7 9 7 11 9 7 4 3 3 2
8 8 7 7 8 8 7 6 6 6 7 7 8 8 7 7 9 11 10 11 10 10 10 10 9 7 6 9 11 11 9 7 7 9 13 11 5 5
7 6 7 7 7 6 6 5 6 7 7 8 8 8 8 9 10 10 11 12 11 11 10 11 9 8 9 9 10 9 14 11 6 7 7 11 14 11
Wind_Direction
346 341 329 320 332 341 328 266 247 296 288 265 256 224 212 178 218 247 248 242 218 220 236 242 219 234 234 238 245 239 235 232 232 226 225 224 227 231
349 355 352 342 344 342 319 300 255 250 277 258 237 239 212 223 232 234 232 224 232 237 227 229 229 227 223 216 226 229 239 238 232 227 222 222 221 223
2 1 351 344 348 355 344 309 274 245 272 281 268 266 266 245 247 240 226 227 241 244 246 227 236 232 230 208 221 226 234 236 234 228 220 218 220 219
354 3 357 350 359 350 351 353 304 273 252 281 273 285 245 250 248 251 247 225 233 245 248 251 232 225 229 214 212 231 235 231 228 225 225 219 218 218
6 2 358 8 15 357 356 355 341 314 254 253 285 265 269 279 298 266 255 252 247 250 252 252 250 238 227 226 221 217 222 225 225 222 218 222 220 218
10 3 11 27 24 3 2 357 348 345 335 292 279 278 273 296 274 281 297 273 264 258 255 242 239 240 237 228 226 224 225 217 220 221 216 216 217 221
8 4 358 25 21 14 5 348 346 343 341 337 324 308 296 324 317 310 279 285 283 247 262 257 244 238 240 232 234 231 235 226 224 224 214 217 214 216
7 359 347 14 358 354 350 340 333 323 317 302 298 315 310 293 298 306 306 315 310 279 250 293 216 248 242 217 221 228 228 226 232 225 217 213 212 215
9 354 356 0 357 351 342 342 336 332 313 286 285 283 293 290 292 293 283 286 276 280 289 282 244 262 248 231 207 206 230 230 228 229 224 217 217 219
359 343 351 345 347 349 332 323 329 328 326 311 268 277 269 280 265 263 269 269 272 274 223 272 250 256 250 230 230 224 219 218 227 226 227 220 218 219
344 340 19 3 1 1 340 337 335 328 327 327 307 297 294 292 281 291 279 259 281 259 227 241 251 268 257 250 240 227 218 208 206 211 214 211 213 219
331 342 3 11 4 3 360 351 343 331 320 328 331 330 317 299 306 266 272 272 273 285 247 201 240 218 302 258 263 240 211 218 215 216 210 216 206 209
352 348 339 7 360 358 4 357 349 337 337 332 334 332 336 334 332 332 309 283 280 271 260 223 225 213 212 287 300 280 215 223 213 218 226 209 198 192
4 327 331 352 354 357 359 359 356 352 347 346 343 338 336 331 329 324 312 309 282 266 272 238 252 209 201 231 249 275 251 239 198 215 211 203 205 208
352 354 347 345 347 349 352 351 349 339 350 345 337 330 327 324 315 312 313 307 297 287 273 259 237 252 224 230 223 222 211 259 208 215 196 207 202 191
349 333 330 328 326 323 328 322 314 320 337 322 323 322 323 326 320 323 321 317 306 300 320 353 316 263 254 236 214 245 207 233 189 212 214 212 211 205
324 334 326 305 301 300 306 299 299 302 324 324 323 319 318 322 324 322 315 315 311 317 324 327 335 319 252 239 245 224 223 220 234 215 210 240 220 210
333 278 281 282 287 293 299 301 304 318 306 318 317 316 313 315 317 318 317 315 316 316 316 320 336 336 339 294 216 248 235 223 236 227 208 208 248 216
240 260 258 262 272 279 285 285 285 293 297 308 310 314 312 310 316 312 315 315 312 313 318 318 312 313 305 303 299 244 347 307 280 247 219 202 223 246
236 255 260 254 253 254 269 265 276 285 287 301 299 298 303 304 306 305 304 304 305 305 299 295 293 295 303 313 305 288 254 259 236 259 248 228 245 269
268 251 250 252 252 247 251 256 254 270 279 287 284 285 290 297 300 297 293 296 292 286 284 287 285 297 296 294 271 274 277 233 236 252 261 220 209 234
269 265 267 251 257 251 252 253 267 277 281 281 282 284 284 288 292 293 292 289 286 283 279 280 289 289 277 257 268 279 289 299 263 253 243 226 185 208
266 268 271 265 265 255 253 256 263 274 274 276 278 282 283 287 291 288 290 287 281 280 281 284 284 278 266 258 254 262 264 269 281 289 271 220 237 254